EW2295 Weather Reports


time (UTC)temp
C
wind
direction
speed
KPH
gust
KPH
rain 1hr
cm
rain 24hr
cm
rain mn
cm
humidity
%
barometer
mb
20260906150100 22 0 0.0 8.0 0.00 0.00 0.00 47 1024.6
20260906145545 22 0 0.0 1.6 0.00 0.00 0.00 45 1024.6
20260906145047 22 0 0.0 1.6 0.00 0.00 0.00 46 1024.6
20260906144606 22 0 0.0 0.0 0.00 0.00 0.00 44 1024.6
20260906144046 22 0 0.0 0.0 0.00 0.00 0.00 44 1024.8
20260906143546 22 0 0.0 0.0 0.00 0.00 0.00 44 1024.8
20260906143057 22 0 0.0 6.4 0.00 0.00 0.00 44 1024.9
20260906142549 22 0 0.0 6.4 0.00 0.00 0.00 46 1025.1
20260906142045 22 193 0.0 3.2 0.00 0.00 0.00 45 1025.2
20260906141604 22 0 0.0 8.0 0.00 0.00 0.00 44 1025.2
20260906141046 22 0 0.0 8.0 0.00 0.00 0.00 46 1025.1
20260906140546 22 0 0.0 8.0 0.00 0.00 0.00 44 1025.2
20260906140059 22 0 0.0 0.0 0.00 0.00 0.00 42 1025.3
20260906135546 22 0 0.0 0.0 0.00 0.00 0.00 44 1025.3
20260906135047 22 0 0.0 0.0 0.00 0.00 0.00 43 1025.4
20260906134557 22 0 0.0 0.0 0.00 0.00 0.00 44 1025.5
20260906134048 22 0 0.0 0.0 0.00 0.00 0.00 45 1025.7
20260906133547 21 0 0.0 0.0 0.00 0.00 0.00 46 1025.6
20260906133119 21 0 0.0 0.0 0.00 0.00 0.00 47 1025.7
20260906132546 21 0 0.0 4.8 0.00 0.00 0.00 46 1025.8
20260906132046 21 0 0.0 4.8 0.00 0.00 0.00 48 1025.8
20260906131604 21 0 0.0 4.8 0.00 0.00 0.00 46 1025.9
20260906131045 21 0 0.0 0.0 0.00 0.00 0.00 46 1026.0
20260906130547 21 0 0.0 0.0 0.00 0.00 0.00 46 1025.9
20260906130112 21 0 0.0 0.0 0.00 0.00 0.00 47 1026.1
20260906125548 21 0 0.0 0.0 0.00 0.00 0.00 46 1026.2
20260906125047 21 0 0.0 0.0 0.00 0.00 0.00 44 1026.2
20260906124605 21 0 0.0 8.0 0.00 0.00 0.00 43 1026.2
20260906124047 21 0 0.0 8.0 0.00 0.00 0.00 45 1026.3
20260906123546 20 0 0.0 6.4 0.00 0.00 0.00 44 1026.3
20260906123104 21 0 0.0 0.0 0.00 0.00 0.00 44 1026.4
20260906122546 21 0 0.0 0.0 0.00 0.00 0.00 46 1026.4
20260906122046 21 0 0.0 0.0 0.00 0.00 0.00 46 1026.3
20260906121559 20 0 0.0 0.0 0.00 0.00 0.00 47 1026.4
20260906121047 20 0 0.0 0.0 0.00 0.00 0.00 48 1026.5
20260906120548 20 0 0.0 6.4 0.00 0.00 0.00 47 1026.7
20260906115547 20 0 0.0 6.4 0.00 0.00 0.00 49 1026.8
20260906115046 20 0 0.0 3.2 0.00 0.00 0.00 48 1026.7
20260906114607 20 0 0.0 3.2 0.00 0.00 0.00 51 1026.8
20260906114046 19 0 0.0 1.6 0.00 0.00 0.00 51 1027.0
20260906113546 19 0 0.0 1.6 0.00 0.00 0.00 52 1026.9
20260906113105 19 0 0.0 1.6 0.00 0.00 0.00 55 1027.1
20260906112546 19 0 0.0 0.0 0.00 0.00 0.00 52 1027.0
20260906112046 19 0 0.0 3.2 0.00 0.00 0.00 51 1027.0
20260906111600 20 0 0.0 3.2 0.00 0.00 0.00 51 1027.1
20260906111045 20 0 0.0 0.0 0.00 0.00 0.00 55 1027.1
20260906110547 20 0 0.0 1.6 0.00 0.00 0.00 53 1027.2
20260906110104 20 0 0.0 1.6 0.00 0.00 0.00 54 1027.2
20260906105543 19 0 0.0 0.0 0.00 0.00 0.00 58 1027.2
20260906105047 18 0 0.0 0.0 0.00 0.00 0.00 60 1027.2
20260906104602 18 0 0.0 6.4 0.00 0.00 0.00 59 1027.3
20260906104043 19 0 0.0 6.4 0.00 0.00 0.00 60 1027.3
20260906103545 18 26 0.0 6.4 0.00 0.00 0.00 60 1027.4
20260906103105 18 0 0.0 0.0 0.00 0.00 0.00 62 1027.6
20260906102543 18 0 0.0 0.0 0.00 0.00 0.00 63 1027.7
20260906102044 18 0 0.0 0.0 0.00 0.00 0.00 62 1027.7
20260906101600 18 0 0.0 0.0 0.00 0.00 0.00 65 1027.7
20260906101045 18 0 0.0 0.0 0.00 0.00 0.00 65 1027.8
20260906100544 18 0 0.0 0.0 0.00 0.00 0.00 64 1027.9
20260906095544 18 0 0.0 0.0 0.00 0.00 0.00 65 1027.9
20260906095045 18 0 0.0 0.0 0.00 0.00 0.00 64 1028.0
20260906094610 18 0 0.0 0.0 0.00 0.00 0.00 66 1028.0
20260906094043 17 0 0.0 0.0 0.00 0.00 0.00 67 1028.1
20260906093543 18 0 0.0 0.0 0.00 0.00 0.00 67 1028.1
20260906093107 17 0 0.0 0.0 0.00 0.00 0.00 67 1028.3
20260906092551 17 0 0.0 0.0 0.00 0.00 0.00 65 1028.2
20260906092046 17 0 0.0 0.0 0.00 0.00 0.00 66 1028.4
20260906091555 17 0 0.0 0.0 0.00 0.00 0.00 67 1028.4
20260906091045 17 0 0.0 0.0 0.00 0.00 0.00 69 1028.3
20260906090543 17 0 0.0 0.0 0.00 0.00 0.00 69 1028.3
20260906090135 17 0 0.0 0.0 0.00 0.00 0.00 72 1028.3
20260906085547 17 0 0.0 0.0 0.00 0.00 0.00 69 1028.3
20260906085044 17 0 0.0 0.0 0.00 0.00 0.00 72 1028.2
20260906084616 16 0 0.0 0.0 0.00 0.00 0.00 71 1028.3
20260906084045 16 0 0.0 0.0 0.00 0.00 0.00 72 1028.4
20260906083543 16 0 0.0 0.0 0.00 0.00 0.00 71 1028.4
20260906083056 16 0 0.0 0.0 0.00 0.00 0.00 71 1028.4
20260906082543 16 0 0.0 0.0 0.00 0.00 0.00 73 1028.4
20260906082047 16 0 0.0 0.0 0.00 0.00 0.00 74 1028.5
20260906081600 16 0 0.0 0.0 0.00 0.00 0.00 75 1028.3
20260906081043 16 0 0.0 0.0 0.00 0.00 0.00 75 1028.4
20260906080545 16 0 0.0 0.0 0.00 0.00 0.00 76 1028.5
20260906080110 15 0 0.0 0.0 0.00 0.00 0.00 78 1028.4
20260906075546 15 0 0.0 0.0 0.00 0.00 0.00 78 1028.4
20260906075044 15 0 0.0 0.0 0.00 0.00 0.00 80 1028.4
20260906074603 14 0 0.0 0.0 0.00 0.00 0.00 80 1028.4
20260906074043 14 0 0.0 0.0 0.00 0.00 0.00 81 1028.3
20260906073546 14 0 0.0 0.0 0.00 0.00 0.00 81 1028.4
20260906073058 13 0 0.0 0.0 0.00 0.00 0.00 84 1028.3
20260906072544 13 0 0.0 0.0 0.00 0.00 0.00 85 1028.3
20260906072043 13 0 0.0 0.0 0.00 0.00 0.00 85 1028.2
20260906071559 12 0 0.0 0.0 0.00 0.00 0.00 86 1028.1
20260906071044 12 0 0.0 0.0 0.00 0.00 0.00 86 1028.1
20260906070543 12 0 0.0 0.0 0.00 0.00 0.00 87 1028.0
20260906065546 11 0 0.0 0.0 0.00 0.00 0.00 90 1028.0
20260906065044 11 0 0.0 0.0 0.00 0.00 0.00 90 1028.0
20260906064602 11 0 0.0 0.0 0.00 0.00 0.00 91 1027.9
20260906064047 11 0 0.0 0.0 0.00 0.00 0.00 92 1027.9
20260906063543 10 0 0.0 0.0 0.00 0.00 0.00 93 1027.9
20260906063057 10 0 0.0 0.0 0.00 0.00 0.00 93 1027.9
20260906062545 10 0 0.0 0.0 0.00 0.00 0.00 94 1028.0
20260906062045 10 0 0.0 0.0 0.00 0.00 0.00 94 1028.1
20260906061609 10 0 0.0 0.0 0.00 0.00 0.00 94 1028.0
20260906061046 10 0 0.0 0.0 0.00 0.00 0.00 95 1027.8
20260906060548 10 0 0.0 0.0 0.00 0.00 0.00 95 1028.0
20260906060103 10 0 0.0 0.0 0.00 0.00 0.00 95 1028.0
20260906055546 9 0 0.0 0.0 0.00 0.00 0.00 96 1028.0
20260906055047 9 0 0.0 0.0 0.00 0.00 0.00 96 1028.0
20260906054607 9 0 0.0 0.0 0.00 0.00 0.00 96 1028.0
20260906054046 9 0 0.0 0.0 0.00 0.00 0.00 96 1028.0
20260906053548 9 0 0.0 0.0 0.00 0.00 0.00 96 1027.8
20260906053119 8 0 0.0 0.0 0.00 0.00 0.00 96 1027.8
20260906052546 8 0 0.0 0.0 0.00 0.00 0.00 96 1027.7
20260906052046 8 0 0.0 0.0 0.00 0.00 0.00 96 1027.8
20260906051625 8 0 0.0 0.0 0.00 0.00 0.00 96 1027.8
20260906051045 8 0 0.0 0.0 0.00 0.00 0.00 96 1027.7
20260906050544 8 0 0.0 0.0 0.00 0.00 0.00 96 1027.5
20260906050059 8 0 0.0 0.0 0.00 0.00 0.00 96 1027.6
20260906045548 8 0 0.0 0.0 0.00 0.00 0.00 96 1027.7
20260906045043 8 0 0.0 0.0 0.00 0.00 0.00 96 1027.7
20260906044621 8 0 0.0 0.0 0.00 0.00 0.00 96 1027.8
20260906044047 8 0 0.0 0.0 0.00 0.00 0.00 96 1027.7
20260906043547 8 0 0.0 0.0 0.00 0.00 0.00 96 1027.9
20260906043102 7 0 0.0 0.0 0.00 0.00 0.00 96 1027.8
20260906042545 8 0 0.0 0.0 0.00 0.00 0.00 96 1027.9
20260906042045 8 0 0.0 0.0 0.00 0.00 0.00 96 1027.9
20260906041557 8 0 0.0 0.0 0.00 0.00 0.00 96 1027.9
20260906041047 8 0 0.0 0.0 0.00 0.00 0.00 96 1027.8
20260906040546 8 0 0.0 0.0 0.00 0.00 0.00 96 1027.8
20260906040106 7 0 0.0 0.0 0.00 0.00 0.00 96 1027.9
20260906035546 7 0 0.0 0.0 0.00 0.00 0.00 96 1027.9
20260906035046 7 0 0.0 0.0 0.00 0.00 0.00 96 1027.9
20260906034601 7 0 0.0 0.0 0.00 0.00 0.00 96 1028.0
20260906034047 7 0 0.0 0.0 0.00 0.00 0.00 95 1028.0
20260906033546 7 0 0.0 0.0 0.00 0.00 0.00 95 1028.0
20260906033059 8 0 0.0 0.0 0.00 0.00 0.00 96 1027.9
20260906032544 8 0 0.0 0.0 0.00 0.00 0.00 96 1027.9
20260906032043 8 0 0.0 0.0 0.00 0.00 0.00 96 1027.9
20260906031605 8 0 0.0 0.0 0.00 0.00 0.00 96 1027.8
20260906031045 7 0 0.0 0.0 0.00 0.00 0.00 96 1027.9
20260906030547 7 0 0.0 0.0 0.00 0.00 0.00 96 1028.1
20260906030107 8 0 0.0 0.0 0.00 0.00 0.00 95 1028.2
20260906025546 8 0 0.0 0.0 0.00 0.00 0.00 95 1028.2
20260906025046 8 0 0.0 0.0 0.00 0.00 0.00 96 1028.1
20260906024623 8 0 0.0 0.0 0.00 0.00 0.00 95 1028.0
20260906024046 8 0 0.0 0.0 0.00 0.00 0.00 96 1028.0
20260906023546 8 0 0.0 0.0 0.00 0.00 0.00 96 1028.1
20260906023107 8 0 0.0 0.0 0.00 0.00 0.00 96 1028.0
20260906022547 8 0 0.0 0.0 0.00 0.00 0.00 95 1028.0
20260906022049 8 0 0.0 0.0 0.00 0.00 0.00 95 1028.0
20260906021605 8 0 0.0 0.0 0.00 0.00 0.00 95 1028.0
20260906021043 8 0 0.0 0.0 0.00 0.00 0.00 95 1027.9
20260906020547 8 0 0.0 0.0 0.00 0.00 0.00 96 1027.8
20260906020106 8 0 0.0 0.0 0.00 0.00 0.00 95 1027.7
20260906015545 8 0 0.0 0.0 0.00 0.00 0.00 95 1027.7
20260906015046 8 0 0.0 0.0 0.00 0.00 0.00 95 1027.7
20260906014556 8 0 0.0 0.0 0.00 0.00 0.00 95 1027.7
20260906014046 8 0 0.0 0.0 0.00 0.00 0.00 95 1027.6
20260906013547 8 0 0.0 0.0 0.00 0.00 0.00 95 1027.7
20260906013054 8 0 0.0 0.0 0.00 0.00 0.00 95 1027.7
20260906012546 8 0 0.0 0.0 0.00 0.00 0.00 95 1027.7
20260906012046 8 0 0.0 0.0 0.00 0.00 0.00 95 1027.8
20260906011604 8 0 0.0 0.0 0.00 0.00 0.00 95 1027.8
20260906011047 8 0 0.0 0.0 0.00 0.00 0.00 95 1027.8
20260906010546 8 0 0.0 0.0 0.00 0.00 0.00 95 1027.7
20260906010130 8 0 0.0 0.0 0.00 0.00 0.00 95 1027.7
20260906005546 8 0 0.0 0.0 0.00 0.00 0.00 95 1027.5
20260906005045 9 0 0.0 0.0 0.00 0.00 0.00 95 1027.7
20260906004557 9 0 0.0 0.0 0.00 0.00 0.00 95 1027.5
20260906004044 9 0 0.0 0.0 0.00 0.00 0.00 95 1027.6
20260906003546 9 0 0.0 0.0 0.00 0.00 0.00 95 1027.7
20260906003058 9 0 0.0 0.0 0.00 0.00 0.00 94 1027.4
20260906002545 9 0 0.0 0.0 0.00 0.00 0.00 94 1027.4
20260906002051 9 0 0.0 0.0 0.00 0.00 0.00 94 1027.6
20260906001605 9 0 0.0 0.0 0.00 0.00 0.00 94 1027.5
20260906001047 9 0 0.0 0.0 0.00 0.00 0.00 94 1027.6
20260906000547 9 0 0.0 0.0 0.00 0.00 0.00 94 1027.5
20260905235546 9 0 0.0 0.0 0.00 0.00 0.00 94 1027.5
20260905235045 9 0 0.0 0.0 0.00 0.00 0.00 94 1027.5
20260905234605 10 0 0.0 0.0 0.00 0.00 0.00 94 1027.6
20260905234045 10 0 0.0 0.0 0.00 0.00 0.00 93 1027.4
20260905233546 10 0 0.0 0.0 0.00 0.00 0.00 93 1027.5
20260905233055 10 0 0.0 0.0 0.00 0.00 0.00 93 1027.5
20260905232549 10 0 0.0 0.0 0.00 0.00 0.00 93 1027.5
20260905232045 10 0 0.0 0.0 0.00 0.00 0.00 93 1027.3
20260905231555 10 0 0.0 0.0 0.00 0.00 0.00 93 1027.4
20260905231044 10 0 0.0 0.0 0.00 0.00 0.00 93 1027.2
20260905230549 10 0 0.0 0.0 0.00 0.00 0.00 93 1027.3
20260905230120 10 0 0.0 0.0 0.00 0.00 0.00 92 1027.3
20260905225545 10 0 0.0 0.0 0.00 0.00 0.00 92 1027.5
20260905225045 10 0 0.0 0.0 0.00 0.00 0.00 92 1027.4
20260905224604 10 0 0.0 0.0 0.00 0.00 0.00 92 1027.4
20260905224046 10 0 0.0 0.0 0.00 0.00 0.00 92 1027.4
20260905223545 10 0 0.0 0.0 0.00 0.00 0.00 91 1027.4
20260905223106 11 0 0.0 0.0 0.00 0.00 0.00 91 1027.4
20260905222547 11 0 0.0 0.0 0.00 0.00 0.00 91 1027.3
20260905222046 11 0 0.0 0.0 0.00 0.00 0.00 90 1027.1
20260905221610 11 0 0.0 0.0 0.00 0.00 0.00 90 1027.1
20260905221048 11 0 0.0 0.0 0.00 0.00 0.00 90 1027.0
20260905220548 11 0 0.0 0.0 0.00 0.00 0.00 89 1026.9
20260905220103 11 0 0.0 0.0 0.00 0.00 0.00 89 1026.9
20260905215548 11 0 0.0 0.0 0.00 0.00 0.00 89 1027.0
20260905215045 11 0 0.0 0.0 0.00 0.00 0.00 89 1026.9
20260905214606 11 0 0.0 0.0 0.00 0.00 0.00 88 1027.0
20260905214046 11 0 0.0 0.0 0.00 0.00 0.00 88 1026.9
20260905213546 12 0 0.0 0.0 0.00 0.00 0.00 87 1026.9
20260905213105 12 0 0.0 0.0 0.00 0.00 0.00 87 1026.9
20260905212546 12 0 0.0 0.0 0.00 0.00 0.00 86 1026.7
20260905212045 12 0 0.0 0.0 0.00 0.00 0.00 86 1026.9
20260905211600 12 0 0.0 0.0 0.00 0.00 0.00 85 1026.8
20260905211046 12 0 0.0 0.0 0.00 0.00 0.00 85 1026.7
20260905210548 12 0 0.0 0.0 0.00 0.00 0.00 84 1026.8
20260905210105 12 0 0.0 0.0 0.00 0.00 0.00 83 1026.9
20260905205545 12 0 0.0 0.0 0.00 0.00 0.00 83 1026.8
20260905205050 13 0 0.0 0.0 0.00 0.00 0.00 83 1026.7
20260905204610 13 0 0.0 0.0 0.00 0.00 0.00 82 1026.7
20260905204042 13 0 0.0 0.0 0.00 0.00 0.00 82 1026.6
20260905203546 13 0 0.0 0.0 0.00 0.00 0.00 81 1026.6
20260905203101 13 0 0.0 0.0 0.00 0.00 0.00 81 1026.5
20260905202549 13 0 0.0 0.0 0.00 0.00 0.00 80 1026.4
20260905202046 13 0 0.0 0.0 0.00 0.00 0.00 80 1026.5
20260905201610 13 0 0.0 0.0 0.00 0.00 0.00 79 1026.3
20260905201045 13 0 0.0 0.0 0.00 0.00 0.00 78 1026.3
20260905200619 14 0 0.0 0.0 0.00 0.00 0.00 77 1026.3
20260905200108 14 0 0.0 0.0 0.00 0.00 0.00 76 1026.3
20260905195545 15 0 0.0 0.0 0.00 0.00 0.00 74 1026.3
20260905195045 15 0 0.0 6.4 0.00 0.00 0.00 72 1026.2
20260905194559 16 0 0.0 6.4 0.00 0.00 0.00 71 1026.3
20260905194042 16 0 0.0 3.2 0.00 0.00 0.00 70 1026.3
20260905193545 16 0 0.0 3.2 0.00 0.00 0.00 70 1026.3
20260905193101 16 0 0.0 3.2 0.00 0.00 0.00 70 1026.3
20260905192546 16 0 0.0 3.2 0.00 0.00 0.00 70 1026.3
20260905192049 16 0 0.0 0.0 0.00 0.00 0.00 71 1026.3
20260905191602 16 0 0.0 0.0 0.00 0.00 0.00 71 1026.2
20260905191045 16 0 0.0 0.0 0.00 0.00 0.00 72 1026.1
20260905190546 16 0 0.0 0.0 0.00 0.00 0.00 71 1026.0
20260905190103 16 0 0.0 0.0 0.00 0.00 0.00 70 1026.0
20260905185542 16 0 0.0 6.4 0.00 0.00 0.00 70 1025.8
20260905185042 16 0 0.0 6.4 0.00 0.00 0.00 69 1025.8
20260905184612 16 0 0.0 3.2 0.00 0.00 0.00 69 1025.7
20260905184042 16 0 0.0 3.2 0.00 0.00 0.00 69 1025.7
20260905183542 16 0 0.0 1.6 0.00 0.00 0.00 69 1025.7
20260905183114 16 0 0.0 1.6 0.00 0.00 0.00 68 1025.6
20260905182549 16 0 0.0 11.3 0.00 0.00 0.00 67 1025.4
20260905182049 17 0 0.0 11.3 0.00 0.00 0.00 67 1025.2
20260905181609 17 0 0.0 9.7 0.00 0.00 0.00 66 1025.3
20260905181042 17 0 0.0 8.0 0.00 0.00 0.00 65 1025.2
20260905180545 17 0 0.0 14.5 0.00 0.00 0.00 64 1025.2
20260905180106 17 0 0.0 16.1 0.00 0.00 0.00 63 1025.2
20260905175542 17 0 0.0 16.1 0.00 0.00 0.00 63 1025.1
20260905175042 17 0 1.6 20.9 0.00 0.00 0.00 62 1025.0
20260905174558 17 217 1.6 20.9 0.00 0.00 0.00 62 1025.0
20260905174045 18 0 0.0 24.1 0.00 0.00 0.00 61 1024.9
20260905173546 18 0 0.0 24.1 0.00 0.00 0.00 61 1024.8
20260905173115 18 279 4.8 22.5 0.00 0.00 0.00 60 1024.8
20260905172542 18 264 1.6 22.5 0.00 0.00 0.00 61 1024.7
20260905172046 18 0 3.2 22.5 0.00 0.00 0.00 61 1024.6
20260905171605 18 0 3.2 22.5 0.00 0.00 0.00 61 1024.6
20260905171045 18 0 3.2 22.5 0.00 0.00 0.00 60 1024.5
20260905170542 18 0 0.0 24.1 0.00 0.00 0.00 60 1024.4
20260905170109 18 0 1.6 24.1 0.00 0.00 0.00 60 1024.4
20260905165544 18 205 4.8 30.6 0.00 0.15 0.00 60 1024.4
20260905165045 18 239 1.6 30.6 0.00 0.15 0.00 60 1024.3
20260905164605 18 0 11.3 30.6 0.00 0.15 0.00 59 1024.3
20260905164044 18 257 1.6 27.4 0.00 0.15 0.00 61 1024.2
20260905163542 18 0 3.2 32.2 0.00 0.15 0.00 61 1024.2
20260905163105 18 0 6.4 32.2 0.00 0.15 0.00 60 1024.1
20260905162545 18 0 3.2 30.6 0.00 0.15 0.00 60 1024.1
20260905162044 18 0 3.2 30.6 0.00 0.15 0.00 60 1024.0
20260905161602 18 247 0.0 22.5 0.00 0.15 0.00 61 1023.9
20260905161042 18 0 1.6 25.7 0.00 0.15 0.00 60 1023.8
20260905160542 18 232 3.2 27.4 0.00 0.15 0.00 60 1023.9
20260905160059 19 261 0.0 27.4 0.00 0.15 0.00 60 1023.8
20260905155545 18 0 0.0 27.4 0.00 0.30 0.00 61 1023.7
20260905155044 18 0 1.6 20.9 0.00 0.30 0.00 61 1023.7
20260905154606 18 0 1.6 20.9 0.00 0.30 0.00 60 1023.8
20260905154046 19 0 1.6 19.3 0.00 0.30 0.00 60 1023.6
20260905153544 19 0 1.6 19.3 0.00 0.30 0.00 60 1023.5
20260905153102 19 268 0.0 20.9 0.00 0.30 0.00 62 1023.5
20260905152545 18 0 1.6 20.9 0.00 0.30 0.00 62 1023.4
20260905152048 18 0 0.0 17.7 0.00 0.30 0.00 61 1023.3
20260905151607 19 252 0.0 25.7 0.00 0.30 0.00 61 1023.2
20260905151046 19 218 1.6 29.0 0.00 0.30 0.00 61 1023.1
20260905150545 20 233 6.4 29.0 0.00 0.30 0.00 59 1023.0